Terra Bella
DateTemperatureDew Point
09/04 - 12:00 PM78.9°62.7°
09/04 - 11:45 AM77.9°62.1°
09/04 - 11:30 AM77.6°62.2°
09/04 - 11:15 AM77.2°62.6°
09/04 - 11:00 AM76.4°62.9°
09/04 - 10:45 AM75.9°62.9°
09/04 - 10:30 AM75.1°62.8°
09/04 - 10:15 AM74.4°62.8°
09/04 - 10:00 AM74.4°62.9°
09/04 - 09:45 AM75.0°62.9°
09/04 - 09:30 AM74.6°62.4°
09/04 - 09:15 AM74.1°62.5°
09/04 - 09:00 AM73.5°62.5°
09/04 - 08:45 AM72.4°61.7°
09/04 - 08:30 AM71.6°61.3°
09/04 - 08:15 AM70.6°60.7°
09/04 - 08:00 AM69.5°60.5°
09/04 - 07:45 AM67.1°59.2°
09/04 - 07:30 AM64.9°58.1°
09/04 - 07:15 AM61.9°58.1°
09/04 - 07:00 AM58.0°57.4°
09/04 - 06:45 AM55.1°54.2°
09/04 - 06:30 AM54.2°52.8°
09/04 - 06:15 AM54.1°52.1°
09/04 - 06:00 AM54.4°51.8°
09/04 - 05:45 AM54.5°51.6°
09/04 - 05:30 AM54.3°51.5°
09/04 - 05:15 AM54.4°51.7°
09/04 - 05:00 AM54.5°51.9°
09/04 - 04:45 AM54.7°51.7°
09/04 - 04:30 AM54.9°51.6°
09/04 - 04:15 AM55.2°51.8°
09/04 - 04:00 AM55.5°51.8°
09/04 - 03:45 AM55.7°51.7°
09/04 - 03:30 AM55.9°51.5°
09/04 - 03:15 AM56.5°51.9°
09/04 - 03:00 AM56.9°52.4°
09/04 - 02:45 AM57.3°52.5°
09/04 - 02:30 AM57.9°52.4°
09/04 - 02:15 AM58.6°52.1°
09/04 - 02:00 AM59.2°52.2°
09/04 - 01:45 AM60.0°52.7°
09/04 - 01:30 AM60.8°52.6°
09/04 - 01:15 AM61.1°52.2°
09/04 - 01:00 AM61.1°52.7°
09/04 - 12:45 AM60.6°53.3°
09/04 - 12:30 AM59.6°54.3°
09/04 - 12:15 AM59.7°55.2°
09/04 - 12:00 AM60.1°55.4°
09/03 - 11:45 PM60.0°55.8°
09/03 - 11:30 PM60.6°57.3°
09/03 - 11:15 PM61.2°57.1°
09/03 - 11:00 PM61.5°56.4°
09/03 - 10:45 PM62.0°56.7°
09/03 - 10:30 PM62.3°56.0°
09/03 - 10:15 PM63.1°56.6°
09/03 - 10:00 PM63.7°56.4°
09/03 - 09:45 PM63.8°56.6°
09/03 - 09:30 PM64.0°57.3°
09/03 - 09:15 PM64.4°58.6°
09/03 - 09:00 PM65.0°57.5°
09/03 - 08:45 PM65.6°57.9°
09/03 - 08:30 PM66.2°59.2°
09/03 - 08:15 PM66.8°59.3°
09/03 - 08:00 PM67.5°59.1°
09/03 - 07:45 PM68.5°59.4°
09/03 - 07:30 PM69.9°59.7°
09/03 - 07:15 PM71.7°59.3°
09/03 - 07:00 PM73.6°57.9°
09/03 - 06:45 PM76.0°57.8°
09/03 - 06:30 PM78.0°57.3°
09/03 - 06:15 PM79.3°56.8°
09/03 - 06:00 PM80.4°56.8°
09/03 - 05:45 PM82.9°56.8°
09/03 - 05:30 PM86.5°59.0°
09/03 - 05:15 PM87.7°59.3°
09/03 - 05:00 PM88.2°60.2°
09/03 - 04:45 PM88.7°59.8°
09/03 - 04:30 PM88.9°58.8°
09/03 - 04:15 PM88.5°59.7°
09/03 - 04:00 PM86.7°59.0°
09/03 - 03:45 PM87.3°58.5°
09/03 - 03:30 PM86.8°59.2°
09/03 - 03:15 PM86.3°60.4°
09/03 - 03:00 PM84.3°59.3°
09/03 - 02:45 PM83.7°56.8°
09/03 - 02:30 PM83.4°58.8°
09/03 - 02:15 PM83.0°59.5°
09/03 - 02:00 PM82.2°59.4°
09/03 - 01:45 PM81.8°57.9°
09/03 - 01:30 PM81.9°59.0°
09/03 - 01:15 PM81.3°59.8°
09/03 - 01:00 PM80.7°59.9°
09/03 - 12:45 PM80.7°60.1°
09/03 - 12:30 PM80.2°60.8°
09/03 - 12:15 PM79.3°61.1°
09/03 - 12:00 PM78.5°60.9°
09/03 - 11:45 AM77.6°60.2°
09/03 - 11:30 AM76.8°60.3°
09/03 - 11:15 AM75.9°60.3°
09/03 - 11:00 AM75.2°60.4°
09/03 - 10:45 AM74.5°59.9°
09/03 - 10:30 AM74.2°60.3°
09/03 - 10:15 AM73.5°59.9°
09/03 - 10:00 AM73.3°59.6°
09/03 - 09:45 AM73.9°59.9°
09/03 - 09:30 AM73.3°59.9°
09/03 - 09:15 AM73.0°60.1°
09/03 - 09:00 AM71.5°59.5°
09/03 - 08:45 AM70.8°58.9°
09/03 - 08:30 AM69.9°59.1°
09/03 - 08:15 AM68.4°58.4°
09/03 - 08:00 AM67.0°57.7°
09/03 - 07:45 AM65.3°57.7°
09/03 - 07:30 AM63.4°57.4°
09/03 - 07:15 AM60.1°58.0°
09/03 - 07:00 AM56.5°56.5°
09/03 - 06:45 AM53.6°53.6°
09/03 - 06:30 AM53.0°53.0°
09/03 - 06:15 AM52.7°52.7°
09/03 - 06:00 AM52.2°52.2°
09/03 - 05:45 AM52.3°52.3°
09/03 - 05:30 AM52.6°52.4°
09/03 - 05:15 AM53.0°52.7°
09/03 - 05:00 AM53.3°52.7°
09/03 - 04:45 AM53.5°52.6°
09/03 - 04:30 AM53.6°52.4°
09/03 - 04:15 AM53.4°51.8°
09/03 - 04:00 AM53.7°52.0°
09/03 - 03:45 AM54.0°52.0°
09/03 - 03:30 AM54.1°51.8°
09/03 - 03:15 AM54.4°51.7°
09/03 - 03:00 AM54.7°51.6°
09/03 - 02:45 AM55.2°51.8°
09/03 - 02:30 AM55.6°51.8°
09/03 - 02:15 AM56.1°52.1°
09/03 - 02:00 AM56.1°52.0°
09/03 - 01:45 AM56.0°52.2°
09/03 - 01:30 AM56.2°52.0°
09/03 - 01:15 AM56.6°51.8°
09/03 - 01:00 AM56.6°51.9°
09/03 - 12:45 AM56.6°52.4°
09/03 - 12:30 AM56.9°53.4°
09/03 - 12:15 AM57.3°53.7°
09/03 - 12:00 AM57.8°54.6°
09/02 - 11:45 PM57.9°55.4°
09/02 - 11:30 PM58.4°55.8°
09/02 - 11:15 PM58.8°55.4°
09/02 - 11:00 PM58.9°54.7°
09/02 - 10:45 PM59.1°54.8°
09/02 - 10:30 PM59.8°55.3°
09/02 - 10:15 PM59.5°54.5°
09/02 - 10:00 PM60.7°56.7°
09/02 - 09:45 PM61.5°57.2°
09/02 - 09:30 PM62.0°57.3°
09/02 - 09:15 PM63.0°58.5°
09/02 - 09:00 PM63.2°56.9°
09/02 - 08:45 PM63.2°56.0°
09/02 - 08:30 PM64.2°57.7°
09/02 - 08:15 PM64.8°57.9°
09/02 - 08:00 PM66.0°58.0°
09/02 - 07:45 PM67.0°56.9°
09/02 - 07:30 PM68.8°57.1°
09/02 - 07:15 PM70.5°56.1°
09/02 - 07:00 PM72.5°55.7°
09/02 - 06:45 PM74.4°54.9°
09/02 - 06:30 PM76.1°54.6°
09/02 - 06:15 PM77.6°54.3°
09/02 - 06:00 PM78.6°54.3°
09/02 - 05:45 PM80.9°54.4°
09/02 - 05:30 PM84.9°56.1°
09/02 - 05:15 PM85.1°55.8°
09/02 - 05:00 PM85.1°55.7°
09/02 - 04:45 PM85.7°56.3°
09/02 - 04:30 PM85.9°57.1°
09/02 - 04:15 PM85.6°56.2°
09/02 - 04:00 PM86.1°57.1°
09/02 - 03:45 PM85.7°56.5°
09/02 - 03:30 PM84.5°56.5°
09/02 - 03:15 PM83.9°56.2°
09/02 - 03:00 PM82.2°56.0°
09/02 - 02:45 PM81.6°56.0°
09/02 - 02:30 PM81.6°56.9°
09/02 - 02:15 PM80.6°56.8°
09/02 - 02:00 PM79.9°56.0°
09/02 - 01:45 PM80.2°56.9°
09/02 - 01:30 PM79.7°56.8°
09/02 - 01:15 PM79.6°57.3°
09/02 - 01:00 PM79.2°58.0°
09/02 - 12:45 PM78.1°55.9°